Leesburg, VA

1:53 AM EDT on October 23, 2019 (GMT -0400)
Leesburg Executive

Weather History for KJYO - May, 2019

Change the Weather History Date:

Friday, May 24, 2019

  Actual Average (KIAD) Record (KIAD)
Temperature  
Mean Temperature 75 °F -  
Max Temperature 82 °F 77 °F 90 °F (1964)
Min Temperature 64 °F 53 °F 36 °F (1963)
Cooling Degree Days 10    
Growing Degree Days 25 (Base 50)    
Moisture  
Dew Point 59 °F    
Average Humidity 57    
Maximum Humidity 94    
Minimum Humidity 37    
Precipitation  
Precipitation 0.00 in - - ()
Sea Level Pressure  
Sea Level Pressure 30.04 in    
Wind  
Wind Speed 10 mph (NNW)    
Max Wind Speed 17 mph    
Max Gust Speed 24 mph    
Visibility 10 miles    
Events      
Averages and records for this station are not official NWS values.
T = Trace of Precipitation, MM = Missing Value Source: NWS Daily Summary

Daily Weather History Graph

Daily Weather History Graph

Search for Another Location

Airport or City:

Astronomy

May. 24, 2019 Rise Set
Actual Time 5:50 AM EDT 8:24 PM EDT
Civil Twilight 5:19 AM EDT 8:55 PM EDT
Nautical Twilight 4:41 AM EDT 9:33 PM EDT
Astronomical Twilight 3:58 AM EDT 10:16 PM EDT
Moon 12:47 AM EDT (5/24) 10:49 AM EDT (5/24)
Length of Visible Light 15h 35m
Length of Day
14h 33m
Waning Gibbous, 69% of the Moon is Illuminated
May 24
Waning Gibbous
May 26
Last Quarter
Jun 3
New
Jun 10
First Quarter
Jun 17
Full

Hourly Weather History & Observations

Time (EDT) Temp. Heat Index Dew Point Humidity Pressure Visibility Wind Dir Wind Speed Gust Speed Precip Events Conditions
12:15 AM 69.8 °F - 68.0 °F 94% 29.96 in 10.0 mi WSW 6.9 mph - N/A   Clear
12:35 AM 71.6 °F - 66.2 °F 83% 29.95 in 10.0 mi West 8.1 mph - N/A   Clear
12:55 AM 73.4 °F - 66.2 °F 78% 29.95 in 10.0 mi West 12.7 mph 17.3 mph N/A   Clear
1:15 AM 75.2 °F - 66.2 °F 73% 29.95 in 10.0 mi West 13.8 mph 17.3 mph N/A   Clear
1:35 AM 77.0 °F - 66.2 °F 69% 29.95 in 10.0 mi West 9.2 mph - N/A   Clear
1:55 AM 75.2 °F - 66.2 °F 73% 29.94 in 10.0 mi West 9.2 mph - N/A   Clear
2:15 AM 77.0 °F - 66.2 °F 69% 29.94 in 10.0 mi WNW 8.1 mph - N/A   Clear
2:35 AM 77.0 °F - 66.2 °F 69% 29.94 in 10.0 mi WNW 6.9 mph - N/A   Clear
2:55 AM 77.0 °F - 66.2 °F 69% 29.94 in 10.0 mi NW 10.4 mph - N/A   Clear
3:15 AM 77.0 °F - 66.2 °F 69% 29.94 in 10.0 mi NW 8.1 mph - N/A   Clear
3:35 AM 77.0 °F - 66.2 °F 69% 29.93 in 10.0 mi WNW 8.1 mph - N/A   Clear
3:55 AM 77.0 °F - 66.2 °F 69% 29.94 in 10.0 mi WNW 10.4 mph 18.4 mph N/A   Clear
4:15 AM 77.0 °F - 68.0 °F 74% 29.94 in 10.0 mi WNW 11.5 mph 18.4 mph N/A   Clear
4:35 AM 77.0 °F - 66.2 °F 69% 29.95 in 10.0 mi WNW 11.5 mph - N/A   Clear
4:55 AM 75.2 °F - 68.0 °F 78% 29.96 in 10.0 mi North 5.8 mph 9.2 mph N/A   Scattered Clouds
5:15 AM 75.2 °F - 66.2 °F 73% 29.97 in 10.0 mi North 17.3 mph - N/A   Mostly Cloudy
5:35 AM 73.4 °F - 62.6 °F 69% 29.99 in 10.0 mi North 9.2 mph 18.4 mph N/A   Scattered Clouds
5:55 AM 71.6 °F - 60.8 °F 69% 30.00 in 10.0 mi NNW 11.5 mph - N/A   Clear
6:15 AM 71.6 °F - 59.0 °F 64% 30.01 in 10.0 mi NNW 13.8 mph 18.4 mph N/A   Clear
6:35 AM 71.6 °F - 57.2 °F 60% 30.02 in 10.0 mi NNW 12.7 mph 20.7 mph N/A   Clear
6:55 AM 69.8 °F - 55.4 °F 60% 30.03 in 10.0 mi NNW 13.8 mph 19.6 mph N/A   Clear
7:15 AM 69.8 °F - 55.4 °F 60% 30.04 in 10.0 mi NNW 15.0 mph 23.0 mph N/A   Clear
7:35 AM 71.6 °F - 55.4 °F 57% 30.05 in 10.0 mi North 10.4 mph 19.6 mph N/A   Clear
7:55 AM 71.6 °F - 55.4 °F 57% 30.06 in 10.0 mi North 11.5 mph 18.4 mph N/A   Clear
8:15 AM 71.6 °F - 53.6 °F 53% 30.07 in 10.0 mi North 13.8 mph 23.0 mph N/A   Clear
8:35 AM 71.6 °F - 55.4 °F 57% 30.07 in 10.0 mi North 11.5 mph 18.4 mph N/A   Clear
8:55 AM 71.6 °F - 55.4 °F 57% 30.07 in 10.0 mi North 10.4 mph 16.1 mph N/A   Clear
9:15 AM 71.6 °F - 55.4 °F 57% 30.08 in 10.0 mi North 9.2 mph - N/A   Clear
9:35 AM 71.6 °F - 55.4 °F 57% 30.08 in 10.0 mi North 12.7 mph 18.4 mph N/A   Clear
9:55 AM 71.6 °F - 55.4 °F 57% 30.08 in 10.0 mi North 12.7 mph - N/A   Clear
10:15 AM 73.4 °F - 55.4 °F 53% 30.08 in 10.0 mi North 9.2 mph 18.4 mph N/A   Clear
10:35 AM 73.4 °F - 55.4 °F 53% 30.08 in 10.0 mi NNW 9.2 mph 19.6 mph N/A   Clear
10:55 AM 73.4 °F - 55.4 °F 53% 30.08 in 10.0 mi NNW 11.5 mph 16.1 mph N/A   Clear
11:15 AM 73.4 °F - 55.4 °F 53% 30.08 in 10.0 mi North 11.5 mph 18.4 mph N/A   Clear
11:35 AM 75.2 °F - 55.4 °F 50% 30.08 in 10.0 mi North 10.4 mph 21.9 mph N/A   Clear
11:55 AM 77.0 °F - 55.4 °F 47% 30.08 in 10.0 mi North 16.1 mph - N/A   Clear
12:15 PM 77.0 °F - 55.4 °F 47% 30.08 in 10.0 mi NNW 17.3 mph 23.0 mph N/A   Clear
12:35 PM 77.0 °F - 55.4 °F 47% 30.08 in 10.0 mi NNW 13.8 mph 18.4 mph N/A   Clear
12:55 PM 78.8 °F - 57.2 °F 47% 30.07 in 10.0 mi NW 16.1 mph 21.9 mph N/A   Clear
1:15 PM 78.8 °F - 55.4 °F 44% 30.07 in 10.0 mi North 12.7 mph 23.0 mph N/A   Clear
1:35 PM 78.8 °F - 55.4 °F 44% 30.07 in 10.0 mi NNW 17.3 mph 20.7 mph N/A   Clear
1:55 PM 80.6 °F 80.5 °F 55.4 °F 42% 30.07 in 10.0 mi NNW 13.8 mph 23.0 mph N/A   Clear
2:15 PM 80.6 °F 80.5 °F 55.4 °F 42% 30.06 in 10.0 mi NNW 13.8 mph 20.7 mph N/A   Clear
2:35 PM 80.6 °F 80.3 °F 53.6 °F 39% 30.05 in 10.0 mi North 16.1 mph 23.0 mph N/A   Clear
2:55 PM 82.4 °F 81.7 °F 55.4 °F 39% 30.05 in 10.0 mi NW 15.0 mph 24.2 mph N/A   Clear
3:15 PM 82.4 °F 81.7 °F 55.4 °F 39% 30.05 in 10.0 mi NW 9.2 mph 16.1 mph N/A   Clear
3:35 PM 82.4 °F 81.4 °F 53.6 °F 37% 30.04 in 10.0 mi North 9.2 mph 17.3 mph N/A   Clear
3:55 PM 82.4 °F 81.7 °F 55.4 °F 39% 30.05 in 10.0 mi North 8.1 mph 16.1 mph N/A   Clear
4:15 PM 82.4 °F 81.7 °F 55.4 °F 39% 30.05 in 10.0 mi North 5.8 mph 18.4 mph N/A   Clear
4:35 PM 82.4 °F 81.7 °F 55.4 °F 39% 30.05 in 10.0 mi NNE 9.2 mph - N/A   Clear
4:55 PM 82.4 °F 81.4 °F 53.6 °F 37% 30.05 in 10.0 mi NNE 8.1 mph - N/A   Clear
5:15 PM 82.4 °F 81.7 °F 55.4 °F 39% 30.05 in 10.0 mi NNE 8.1 mph - N/A   Clear
5:35 PM 82.4 °F 81.7 °F 55.4 °F 39% 30.06 in 10.0 mi North 9.2 mph - N/A   Clear
5:55 PM 82.4 °F 81.7 °F 55.4 °F 39% 30.06 in 10.0 mi North 11.5 mph - N/A   Clear
6:15 PM 82.4 °F 81.7 °F 55.4 °F 39% 30.07 in 10.0 mi North 8.1 mph - N/A   Scattered Clouds
6:35 PM 82.4 °F 81.7 °F 55.4 °F 39% 30.08 in 10.0 mi NNE 9.2 mph - N/A   Scattered Clouds
6:55 PM 80.6 °F 80.5 °F 55.4 °F 42% 30.08 in 10.0 mi NNE 6.9 mph - N/A   Scattered Clouds
7:15 PM 80.6 °F 80.5 °F 55.4 °F 42% 30.08 in 10.0 mi NNE 6.9 mph - N/A   Scattered Clouds
7:35 PM 80.6 °F 80.5 °F 55.4 °F 42% 30.09 in 10.0 mi NNE 5.8 mph - N/A   Clear
7:55 PM 78.8 °F - 55.4 °F 44% 30.09 in 10.0 mi NNE 5.8 mph - N/A   Clear
8:15 PM 78.8 °F - 55.4 °F 44% 30.10 in 10.0 mi NNE 5.8 mph - N/A   Clear
8:35 PM 77.0 °F - 55.4 °F 47% 30.10 in 10.0 mi North - - N/A   Clear
8:55 PM 77.0 °F - 55.4 °F 47% 30.09 in 10.0 mi NNE 4.6 mph - N/A   Scattered Clouds
9:15 PM 73.4 °F - 55.4 °F 53% 30.10 in 10.0 mi Calm Calm - N/A   Scattered Clouds
9:35 PM 71.6 °F - 59.0 °F 64% 30.11 in 10.0 mi Calm Calm - N/A   Clear
9:55 PM 71.6 °F - 59.0 °F 64% 30.11 in 10.0 mi Calm Calm - N/A   Mostly Cloudy
10:15 PM 68.0 °F - 60.8 °F 78% 30.11 in 10.0 mi Calm Calm - N/A   Scattered Clouds
10:35 PM 69.8 °F - 59.0 °F 68% 30.12 in 10.0 mi Calm Calm - N/A   Clear
10:55 PM 68.0 °F - 60.8 °F 78% 30.12 in 10.0 mi Calm Calm - N/A   Clear
11:15 PM 68.0 °F - 60.8 °F 78% 30.12 in 10.0 mi Calm Calm - N/A   Scattered Clouds
11:35 PM 68.0 °F - 59.0 °F 73% 30.12 in 10.0 mi Calm Calm - N/A   Clear
11:55 PM 64.4 °F - 60.8 °F 88% 30.12 in 10.0 mi Calm Calm - N/A   Clear